Roseau, MN

12:29 PM CDT on September 30, 2016 (GMT -0500)
Roseau Municipal-Billberg

Weather History for KROX - September, 2013

Change the Weather History Date:

Saturday, September 21, 2013

  Actual Average Record
Temperature  
Mean Temperature 49 °F -  
Max Temperature 59 °F 63 °F 87 °F (2015)
Min Temperature 39 °F 40 °F 24 °F (1974)
Degree Days  
Heating Degree Days 16    
Moisture  
Dew Point 38 °F    
Average Humidity 69    
Maximum Humidity 87    
Minimum Humidity 45    
Precipitation  
Precipitation 0.00 in - - ()
Sea Level Pressure  
Sea Level Pressure 29.97 in    
Wind  
Wind Speed 5 mph (NNE)    
Max Wind Speed 9 mph    
Max Gust Speed -    
Visibility 10 miles    
Events      
Averages and records for this station are not official NWS values.
T = Trace of Precipitation, MM = Missing Value Source: NWS Daily Summary

Daily Weather History Graph

Daily Weather History Graph

Search for Another Location

Airport or City:

Trip Planner

Search our weather history database for the weather conditions in past years. The results will help you decide how hot, cold, wet, or windy it might be!

Date:

Astronomy

Sep. 21, 2013 Rise Set
Actual Time 7:08 AM CDT 7:22 PM CDT
Civil Twilight 6:36 AM CDT 7:53 PM CDT
Nautical Twilight 5:59 AM CDT 8:30 PM CDT
Astronomical Twilight 5:20 AM CDT 9:09 PM CDT
Moon 8:16 PM CDT (9/21) 9:43 AM CDT (9/21)
Length of Visible Light 13h 16m
Length of Day
12h 13m
Waning Gibbous, 94% of the Moon is Illuminated
Sep 21
Waning Gibbous
Sep 26
Last Quarter
Oct 4
New
Oct 11
First Quarter
Oct 18
Full

Hourly Weather History & Observations

Time (CDT) Temp. Windchill Dew Point Humidity Pressure Visibility Wind Dir Wind Speed Gust Speed Precip Events Conditions
12:14 AM 46.4 °F 42.4 °F 41.0 °F 81% 29.96 in 4.0 mi NNW 8.1 mph - N/A   Haze
12:34 AM 44.6 °F 40.7 °F 39.2 °F 81% 29.96 in 3.0 mi NNW 6.9 mph - N/A   Haze
12:54 AM 44.6 °F 43.1 °F 39.2 °F 81% 29.96 in 10.0 mi WNW 3.5 mph - N/A   Mostly Cloudy
1:14 AM 42.8 °F 40.1 °F 37.4 °F 81% 29.96 in 10.0 mi NW 4.6 mph - N/A   Mostly Cloudy
1:34 AM 42.8 °F 41.1 °F 37.4 °F 81% 29.96 in 10.0 mi NW 3.5 mph - N/A   Mostly Cloudy
1:54 AM 42.8 °F - 37.4 °F 81% 29.97 in 10.0 mi Calm Calm - N/A   Overcast
2:14 AM 42.8 °F 41.1 °F 39.2 °F 87% 29.97 in 10.0 mi NW 3.5 mph - N/A   Overcast
2:34 AM 44.6 °F 41.4 °F 39.2 °F 81% 29.97 in 7.0 mi NNW 5.8 mph - N/A   Overcast
2:54 AM 44.6 °F 42.2 °F 39.2 °F 81% 29.97 in 10.0 mi NNW 4.6 mph - N/A   Overcast
3:14 AM 42.8 °F 38.6 °F 37.4 °F 81% 29.97 in 7.0 mi NW 6.9 mph - N/A   Mostly Cloudy
3:34 AM 42.8 °F 40.1 °F 37.4 °F 81% 29.97 in 10.0 mi WNW 4.6 mph - N/A   Overcast
3:54 AM 42.8 °F 40.1 °F 37.4 °F 81% 29.97 in 10.0 mi NW 4.6 mph - N/A   Overcast
4:14 AM 42.8 °F 41.1 °F 37.4 °F 81% 29.97 in 10.0 mi WNW 3.5 mph - N/A   Overcast
4:34 AM 42.8 °F 41.1 °F 37.4 °F 81% 29.98 in 10.0 mi NW 3.5 mph - N/A   Mostly Cloudy
4:54 AM 42.8 °F 41.1 °F 37.4 °F 81% 29.98 in 10.0 mi WNW 3.5 mph - N/A   Mostly Cloudy
5:14 AM 42.8 °F 41.1 °F 37.4 °F 81% 29.98 in 10.0 mi WNW 3.5 mph - N/A   Overcast
5:34 AM 42.8 °F 39.3 °F 37.4 °F 81% 29.99 in 10.0 mi NW 5.8 mph - N/A   Overcast
5:54 AM 44.6 °F 42.2 °F 39.2 °F 81% 29.99 in 10.0 mi NW 4.6 mph - N/A   Overcast
6:14 AM 44.6 °F 42.2 °F 39.2 °F 81% 30.00 in 10.0 mi NW 4.6 mph - N/A   Overcast
6:34 AM 44.6 °F 42.2 °F 39.2 °F 81% 30.00 in 10.0 mi NW 4.6 mph - N/A   Overcast
6:54 AM 42.8 °F 40.1 °F 37.4 °F 81% 30.00 in 10.0 mi NW 4.6 mph - N/A   Overcast
7:14 AM 42.8 °F - 39.2 °F 87% 30.01 in 10.0 mi Calm Calm - N/A   Overcast
7:34 AM 44.6 °F 42.2 °F 39.2 °F 81% 30.01 in 10.0 mi North 4.6 mph - N/A   Overcast
7:54 AM 44.6 °F 40.7 °F 39.2 °F 81% 30.01 in 10.0 mi NNW 6.9 mph - N/A   Overcast
8:14 AM 44.6 °F 40.2 °F 37.4 °F 76% 30.01 in 10.0 mi NNW 8.1 mph - N/A   Overcast
8:34 AM 44.6 °F 42.2 °F 39.2 °F 81% 30.01 in 10.0 mi North 4.6 mph - N/A   Overcast
8:54 AM 46.4 °F 42.9 °F 39.2 °F 76% 30.01 in 10.0 mi North 6.9 mph - N/A   Overcast
9:14 AM 44.6 °F 41.4 °F 39.2 °F 81% 30.01 in 10.0 mi North 5.8 mph - N/A   Scattered Clouds
9:34 AM 46.4 °F 42.4 °F 39.2 °F 76% 30.01 in 10.0 mi North 8.1 mph - N/A   Mostly Cloudy
9:54 AM 46.4 °F 45.2 °F 39.2 °F 76% 30.02 in 10.0 mi North 3.5 mph - N/A   Mostly Cloudy
10:14 AM 46.4 °F 43.5 °F 37.4 °F 71% 30.02 in 10.0 mi North 5.8 mph - N/A   Clear
10:34 AM 48.2 °F - 37.4 °F 66% 30.01 in 10.0 mi ENE 4.6 mph - N/A   Scattered Clouds
10:54 AM 48.2 °F - 37.4 °F 66% 30.01 in 10.0 mi Calm Calm - N/A   Clear
11:14 AM 51.8 °F - 37.4 °F 58% 30.01 in 10.0 mi North 3.5 mph - N/A   Scattered Clouds
11:34 AM 50.0 °F - 37.4 °F 62% 30.01 in 10.0 mi NNW 6.9 mph - N/A   Clear
11:54 AM 51.8 °F - 37.4 °F 58% 30.01 in 10.0 mi Calm Calm - N/A   Clear
12:14 PM 51.8 °F - 37.4 °F 58% 30.00 in 10.0 mi North 3.5 mph - N/A   Clear
12:34 PM 51.8 °F - 37.4 °F 58% 30.00 in 10.0 mi NNW 3.5 mph - N/A   Clear
12:54 PM 53.6 °F - 37.4 °F 54% 29.99 in 10.0 mi Calm Calm - N/A   Clear
1:14 PM 53.6 °F - 37.4 °F 54% 29.99 in 10.0 mi NNE 4.6 mph - N/A   Clear
1:34 PM 55.4 °F - 37.4 °F 51% 29.99 in 10.0 mi Calm Calm - N/A   Clear
1:54 PM 55.4 °F - 37.4 °F 51% 29.98 in 10.0 mi Calm Calm - N/A   Clear
2:14 PM 55.4 °F - 35.6 °F 47% 29.97 in 10.0 mi NW 3.5 mph - N/A   Clear
2:34 PM 57.2 °F - 37.4 °F 48% 29.96 in 10.0 mi North 4.6 mph - N/A   Clear
2:54 PM 57.2 °F - 37.4 °F 48% 29.96 in 10.0 mi Calm Calm - N/A   Clear
3:15 PM 59.0 °F - 37.4 °F 45% 29.95 in 10.0 mi Calm Calm - N/A   Clear
3:34 PM 59.0 °F - 37.4 °F 45% 29.95 in 10.0 mi ENE 3.5 mph - N/A   Clear
3:54 PM 59.0 °F - 37.4 °F 45% 29.94 in 1.5 mi East 3.5 mph - N/A   Haze
4:14 PM 59.0 °F - 37.4 °F 45% 29.93 in 10.0 mi NNE 4.6 mph - N/A   Clear
4:34 PM 59.0 °F - 37.4 °F 45% 29.93 in 10.0 mi East 5.8 mph - N/A   Clear
4:54 PM 57.2 °F - 39.2 °F 51% 29.93 in 10.0 mi ESE 4.6 mph - N/A   Clear
5:14 PM 57.2 °F - 39.2 °F 51% 29.93 in 10.0 mi East 6.9 mph - N/A   Clear
5:34 PM 57.2 °F - 39.2 °F 51% 29.93 in 10.0 mi ESE 8.1 mph - N/A   Clear
5:54 PM 57.2 °F - 37.4 °F 48% 29.92 in 10.0 mi East 9.2 mph - N/A   Clear
6:14 PM 55.4 °F - 37.4 °F 51% 29.93 in 10.0 mi East 8.1 mph - N/A   Clear
6:34 PM 55.4 °F - 37.4 °F 51% 29.92 in 10.0 mi East 8.1 mph - N/A   Clear
6:54 PM 53.6 °F - 37.4 °F 54% 29.92 in 10.0 mi East 8.1 mph - N/A   Clear
7:14 PM 50.0 °F - 37.4 °F 62% 29.92 in 10.0 mi East 6.9 mph - N/A   Clear
7:34 PM 44.6 °F 41.4 °F 37.4 °F 76% 29.92 in 10.0 mi East 5.8 mph - N/A   Clear
7:54 PM 46.4 °F 43.5 °F 37.4 °F 71% 29.92 in 10.0 mi East 5.8 mph - N/A   Clear
8:14 PM 42.8 °F 40.1 °F 37.4 °F 81% 29.92 in 10.0 mi East 4.6 mph - N/A   Clear
8:34 PM 39.2 °F 35.9 °F 33.8 °F 81% 29.93 in 10.0 mi East 4.6 mph - N/A   Clear
8:54 PM 46.4 °F 42.4 °F 39.2 °F 76% 29.92 in 10.0 mi East 8.1 mph - N/A   Clear
9:14 PM 46.4 °F 42.4 °F 39.2 °F 76% 29.92 in 10.0 mi East 8.1 mph - N/A   Clear
9:34 PM 46.4 °F 42.4 °F 39.2 °F 76% 29.92 in 10.0 mi ESE 8.1 mph - N/A   Clear
9:54 PM 46.4 °F 42.9 °F 39.2 °F 76% 29.93 in 10.0 mi ESE 6.9 mph - N/A   Clear
10:14 PM 44.6 °F 40.7 °F 37.4 °F 76% 29.93 in 10.0 mi ESE 6.9 mph - N/A   Clear
10:34 PM 44.6 °F 40.2 °F 37.4 °F 76% 29.93 in 10.0 mi ESE 8.1 mph - N/A   Clear
10:54 PM 44.6 °F 40.2 °F 37.4 °F 76% 29.93 in 10.0 mi ESE 8.1 mph - N/A   Clear
11:14 PM 44.6 °F 39.7 °F 37.4 °F 76% 29.93 in 10.0 mi ESE 9.2 mph - N/A   Clear
11:34 PM 42.8 °F 38.6 °F 37.4 °F 81% 29.92 in 10.0 mi ESE 6.9 mph - N/A   Clear
11:54 PM 42.8 °F 38.6 °F 37.4 °F 81% 29.93 in 10.0 mi ESE 6.9 mph - N/A   Clear